Home   Weather   Ontario   Past weeks
Flag for USA

Past Weather in Ontario, California, USA — Yesterday and Last 2 Weeks

Now
55 °F

Partly cloudy.


Feels Like: 55 °F
Forecast: 59 / 49 °F
Wind: 3 mph from North

Location: Ontario International Airport

Current Time: Mar 20, 2019 at 10:50:20 pm

Latest Report: Mar 20, 2019 at 10:14 pm


Visibility: 10 mi

Pressure: 30.07 "Hg

Humidity: 77%

Dew Point: 48 °F

Location of OntarioLocation

Past Weather in Ontario — Graph

°F

Ontario Temperature Yesterday

Maximum temperature yesterday: 76 °F (at 12:53 pm)
Minimum temperature yesterday: 56 °F (at 7:53 am)
Average temperature yesterday: 65 °F

High & Low Weather Summary for the Past Weeks

 TemperatureHumidityPressure
High86 °F (Mar 17, 1:53 pm)93% (Mar 6, 10:53 pm)30.18 "Hg (Mar 6, 10:53 pm)
Low47 °F (Mar 9, 4:53 am)11% (Mar 14, 5:53 pm)29.71 "Hg (Mar 12, 2:53 pm)
Average61 °F52%29.96 "Hg
* Reported Mar 5 7:53 pm — Mar 20 8:53 pm, Ontario. Weather by CustomWeather, © 2019

Note: Actual official high and low records may vary slightly from our data, if they occured in-between our weather recording intervals... More about our weather records

Advertising

Ontario Weather History for the Previous 24 Hours

Scroll right to see more
 ConditionsComfort  
Time TempWeatherWind HumidityBarometerVisibility
8:53 pm
Wed, Mar 20
54 °FPassing clouds.3 mph83%30.05 "Hg10 mi
7:53 pm55 °FPartly cloudy.7 mph83%30.03 "Hg10 mi
6:53 pm56 °FPartly sunny.8 mph75%30.02 "Hg10 mi
6:21 pm58 °FLight rain. Partly sunny.5 mph78%30.02 "Hg10 mi
5:53 pm57 °FThunderstorms. Partly sunny.7 mph78%30.01 "Hg10 mi
4:53 pm58 °FLight rain. Partly sunny.7 mph75%30.00 "Hg10 mi
4:30 pm60 °FThundershowers. Broken clouds.9 mph69%30.01 "Hg9 mi
4:19 pm61 °FBroken clouds.13 mph60%30.02 "Hg10 mi
4:04 pm61 °FThundershowers. Broken clouds.10 mph62%30.01 "Hg10 mi
2:53 pm59 °FLight rain. Partly sunny.9 mph69%29.99 "Hg10 mi
2:35 pm59 °FBroken clouds.14 mph75%30.01 "Hg10 mi
2:03 pm60 °FThunderstorms. Mostly cloudy.16 mph69%30.03 "Hg7 mi
1:43 pm61 °FThunderstorms. Broken clouds.9 mph72%30.01 "Hg7 mi
1:27 pm63 °FLight rain. Broken clouds.13 mph58%30.01 "Hg10 mi
1:11 pm63 °FThunderstorms. Partly sunny.13 mph58%30.02 "Hg10 mi
1:03 pm62 °FPartly sunny.13 mph60%30.03 "Hg10 mi
12:53 pm62 °FLight rain. Partly sunny.15 mph58%30.01 "Hg10 mi
11:53 am65 °FBroken clouds.No wind47%30.02 "Hg10 mi
10:53 am62 °FBroken clouds.No wind56%30.04 "Hg10 mi
9:53 am61 °FLight rain. Partly sunny.No wind62%30.03 "Hg10 mi
8:53 am60 °FBroken clouds.3 mph65%30.03 "Hg10 mi
7:53 am58 °FMostly cloudy.3 mph72%30.02 "Hg10 mi
7:15 am58 °FCloudy.5 mph72%30.02 "Hg10 mi
6:03 am58 °FMostly cloudy.3 mph72%30.01 "Hg10 mi
4:53 am58 °FPartly cloudy.3 mph70%29.97 "Hg10 mi
3:53 am59 °FMostly cloudy.No wind69%29.98 "Hg10 mi
2:53 am56 °FPassing clouds.3 mph72%29.98 "Hg10 mi
1:53 am55 °FPartly cloudy.6 mph77%29.99 "Hg10 mi
12:53 am58 °FPartly cloudy.7 mph70%29.98 "Hg10 mi
11:53 pm
Tue, Mar 19
59 °FPartly cloudy.12 mph69%29.99 "Hg10 mi
10:53 pm60 °FPartly cloudy.14 mph69%29.98 "Hg10 mi
Weather by CustomWeather, © 2019

See weather overview